When you browse on this site, cookies collect data to enhance your experience and personalize the content and advertising you see.
Visit our Privacy Policy to learn more. By continuing to use the site, you agree to this use of cookies and data.
  • In Latvia
  • List of Countries
  • For 7 days
  • Water Temperature
  • Satellite Maps
  • Weather Map
  • Weather Widgets
  • user-avatar
    Login

    Hourly Weather Trowbridge

    Today, 27 March, Wednesday

    Time Temperature Precipitation Wind Pressure Humidity
    00:00 +5°C° 0 mm 2 mps 772 mmHg 93%
    01:00 +4°C° 0 mm 2 mps 772 mmHg 93%
    02:00 +5°C° 0 mm 1 mps 772 mmHg 92%
    03:00 +5°C° 0 mm 1 mps 772 mmHg 92%
    04:00 +4°C° 0 mm 1 mps 772 mmHg 92%
    05:00 +4°C° 0 mm 1 mps 772 mmHg 92%
    06:00 +4°C° 0 mm 1 mps 772 mmHg 92%
    07:00 +6°C° 0 mm 1 mps 772 mmHg 86%
    08:00 +8°C° 0 mm 1 mps 773 mmHg 81%
    09:00 +10°C° 0 mm 1 mps 773 mmHg 76%
    10:00 +10°C° 0 mm 2 mps 773 mmHg 72%
    11:00 +12°C° 0 mm 2 mps 773 mmHg 68%
    12:00 +13°C° 0 mm 2 mps 773 mmHg 65%
    13:00 +14°C° 0 mm 2 mps 773 mmHg 64%
    14:00 +14°C° 0 mm 2 mps 773 mmHg 63%
    15:00 +15°C° 0 mm 2 mps 773 mmHg 62%
    16:00 +14°C° 0 mm 2 mps 773 mmHg 68%
    17:00 +13°C° 0 mm 2 mps 773 mmHg 75%
    18:00 +12°C° 0 mm 2 mps 773 mmHg 81%
    19:00 +10°C° 0 mm 2 mps 773 mmHg 84%
    20:00 +9°C° 0 mm 2 mps 773 mmHg 88%
    21:00 +8°C° 0 mm 2 mps 773 mmHg 92%
    22:00 +7°C° 0 mm 2 mps 774 mmHg 92%
    23:00 +6°C° 0 mm 2 mps 774 mmHg 92%

    Tomorrow, 28 March, Thursday

    Time Temperature Precipitation Wind Pressure Humidity
    00:00 +6°C° 0 mm 2 mps 774 mmHg 93%
    01:00 +6°C° 0 mm 2 mps 774 mmHg 93%
    02:00 +5°C° 0 mm 2 mps 774 mmHg 94%
    03:00 +5°C° 0 mm 2 mps 774 mmHg 95%
    04:00 +5°C° 0 mm 1 mps 774 mmHg 94%
    05:00 +5°C° 0 mm 1 mps 774 mmHg 94%
    06:00 +5°C° 0 mm 1 mps 774 mmHg 94%
    07:00 +7°C° 0 mm 1 mps 774 mmHg 90%
    08:00 +8°C° 0 mm 1 mps 774 mmHg 85%
    09:00 +10°C° 0 mm 1 mps 774 mmHg 81%
    10:00 +12°C° 0 mm 1 mps 774 mmHg 75%
    11:00 +13°C° 0 mm 1 mps 774 mmHg 69%
    12:00 +15°C° 0 mm 1 mps 774 mmHg 63%
    13:00 +15°C° 0 mm 1 mps 773 mmHg 61%
    14:00 +16°C° 0 mm 1 mps 773 mmHg 60%
    15:00 +16°C° 0 mm 1 mps 773 mmHg 58%
    16:00 +15°C° 0 mm 1 mps 772 mmHg 64%
    17:00 +14°C° 0 mm 1 mps 772 mmHg 70%
    18:00 +12°C° 0 mm 1 mps 772 mmHg 76%
    19:00 +11°C° 0 mm 1 mps 772 mmHg 79%
    20:00 +10°C° 0 mm 1 mps 772 mmHg 82%
    21:00 +7°C° 0 mm 0 mps 772 mmHg 85%
    22:00 +7°C° 0 mm 0 mps 772 mmHg 85%
    23:00 +7°C° 0 mm 0 mps 772 mmHg 86%

    Day after tomorrow, 29 March, Friday

    Time Temperature Precipitation Wind Pressure Humidity
    00:00 +6°C° 0 mm 0 mps 772 mmHg 87%
    01:00 +6°C° 0 mm 0 mps 772 mmHg 87%
    02:00 +6°C° 0 mm 0 mps 772 mmHg 88%
    03:00 +6°C° 0 mm 1 mps 771 mmHg 88%
    04:00 +6°C° 0 mm 1 mps 771 mmHg 88%
    05:00 +6°C° 0 mm 1 mps 771 mmHg 88%
    06:00 +6°C° 0 mm 1 mps 771 mmHg 89%
    07:00 +8°C° 0 mm 1 mps 771 mmHg 84%
    08:00 +10°C° 0 mm 1 mps 771 mmHg 80%
    09:00 +12°C° 0 mm 1 mps 771 mmHg 76%
    10:00 +13°C° 0 mm 1 mps 770 mmHg 71%
    11:00 +14°C° 0 mm 1 mps 770 mmHg 67%
    12:00 +16°C° 0 mm 2 mps 770 mmHg 63%
    13:00 +16°C° 0 mm 2 mps 769 mmHg 63%
    14:00 +16°C° 0 mm 2 mps 769 mmHg 63%
    15:00 +17°C° 0 mm 2 mps 769 mmHg 62%
    16:00 +15°C° 0 mm 2 mps 768 mmHg 69%
    17:00 +14°C° 0 mm 2 mps 768 mmHg 75%
    18:00 +13°C° 0 mm 2 mps 768 mmHg 81%
    19:00 +12°C° 0 mm 2 mps 768 mmHg 85%
    20:00 +10°C° 0 mm 1 mps 768 mmHg 88%
    21:00 +9°C° 0 mm 1 mps 768 mmHg 92%
    22:00 +8°C° 0 mm 1 mps 768 mmHg 92%
    23:00 +8°C° 0 mm 1 mps 768 mmHg 91%

    30 March, Saturday

    Time Temperature Precipitation Wind Pressure Humidity
    00:00 +8°C° 0 mm 1 mps 767 mmHg 91%
    01:00 +7°C° 0 mm 1 mps 767 mmHg 91%
    02:00 +7°C° 0 mm 1 mps 767 mmHg 91%
    03:00 +7°C° 0 mm 1 mps 766 mmHg 90%
    04:00 +7°C° 0 mm 1 mps 766 mmHg 90%
    05:00 +5°C° 0 mm 0 mps 766 mmHg 90%
    06:00 +5°C° 0 mm 0 mps 766 mmHg 89%
    07:00 +8°C° 0 mm 1 mps 766 mmHg 84%
    08:00 +10°C° 0 mm 1 mps 766 mmHg 80%
    09:00 +12°C° 0 mm 1 mps 765 mmHg 75%
    10:00 +13°C° 0 mm 1 mps 765 mmHg 71%
    11:00 +14°C° 0 mm 2 mps 765 mmHg 68%
    12:00 +16°C° 0 mm 2 mps 765 mmHg 65%
    13:00 +16°C° 0 mm 2 mps 764 mmHg 65%
    14:00 +16°C° 0 mm 3 mps 764 mmHg 66%
    15:00 +16°C° 0 mm 3 mps 764 mmHg 66%
    16:00 +14°C° 0 mm 3 mps 763 mmHg 71%
    17:00 +13°C° 0 mm 3 mps 763 mmHg 76%
    18:00 +12°C° 0 mm 3 mps 763 mmHg 81%
    19:00 +10°C° 0 mm 3 mps 764 mmHg 84%
    20:00 +9°C° 0 mm 3 mps 764 mmHg 87%
    21:00 +7°C° 0 mm 3 mps 764 mmHg 91%
    22:00 +7°C° 0 mm 3 mps 764 mmHg 91%
    23:00 +5°C° 0 mm 3 mps 764 mmHg 92%

    31 March, Sunday

    Time Temperature Precipitation Wind Pressure Humidity
    00:00 +5°C° 0 mm 4 mps 764 mmHg 92%
    01:00 +5°C° 0 mm 4 mps 765 mmHg 88%
    02:00 +4°C° 0 mm 4 mps 765 mmHg 84%
    03:00 +4°C° 0 mm 4 mps 765 mmHg 80%
    04:00 +4°C° 0 mm 4 mps 765 mmHg 81%
    05:00 +4°C° 0 mm 4 mps 766 mmHg 82%
    06:00 +4°C° 0 mm 4 mps 766 mmHg 83%
    07:00 +5°C° 0 mm 5 mps 767 mmHg 79%
    08:00 +5°C° 0 mm 6 mps 767 mmHg 75%
    09:00 +5°C° 0 mm 7 mps 768 mmHg 70%
    10:00 +7°C° 0 mm 6 mps 768 mmHg 66%
    11:00 +8°C° 0 mm 6 mps 768 mmHg 61%
    12:00 +9°C° 0 mm 6 mps 768 mmHg 56%
    13:00 +9°C° 0 mm 6 mps 768 mmHg 56%
    14:00 +9°C° 0 mm 6 mps 768 mmHg 57%
    15:00 +9°C° 0 mm 5 mps 768 mmHg 57%
    16:00 +8°C° 0 mm 5 mps 768 mmHg 61%
    17:00 +7°C° 0 mm 4 mps 768 mmHg 66%
    18:00 +7°C° 0 mm 4 mps 769 mmHg 70%
    19:00 +5°C° 0 mm 4 mps 769 mmHg 73%
    20:00 +4°C° 0 mm 4 mps 770 mmHg 75%
    21:00 +3°C° 0 mm 4 mps 770 mmHg 78%
    22:00 +1°C° 0 mm 4 mps 770 mmHg 80%
    23:00 0°C° 0 mm 4 mps 770 mmHg 82%

    1 April, Monday

    Time Temperature Precipitation Wind Pressure Humidity
    00:00 +1°C° 0 mm 3 mps 770 mmHg 85%
    01:00 0°C° 0 mm 3 mps 770 mmHg 86%
    02:00 -1°C° 0 mm 3 mps 770 mmHg 86%
    03:00 -1°C° 0 mm 2 mps 770 mmHg 87%
    04:00 -1°C° 0 mm 2 mps 770 mmHg 87%
    05:00 -2°C° 0 mm 2 mps 770 mmHg 86%
    06:00 -2°C° 0 mm 2 mps 770 mmHg 86%
    07:00 +1°C° 0 mm 2 mps 770 mmHg 78%
    08:00 +3°C° 0 mm 2 mps 770 mmHg 70%
    09:00 +6°C° 0 mm 1 mps 770 mmHg 62%
    10:00 +7°C° 0 mm 1 mps 769 mmHg 58%
    11:00 +9°C° 0 mm 1 mps 769 mmHg 54%
    12:00 +9°C° 0 mm 0 mps 769 mmHg 50%
    13:00 +10°C° 0 mm 1 mps 768 mmHg 49%
    14:00 +10°C° 0 mm 1 mps 767 mmHg 49%
    15:00 +9°C° 0 mm 2 mps 766 mmHg 48%
    16:00 +8°C° 0 mm 2 mps 766 mmHg 56%
    17:00 +7°C° 0 mm 2 mps 766 mmHg 64%
    18:00 +5°C° 0 mm 3 mps 766 mmHg 72%
    19:00 +4°C° 0 mm 3 mps 765 mmHg 77%
    20:00 +3°C° 0 mm 3 mps 765 mmHg 81%
    21:00 +2°C° 0 mm 3 mps 765 mmHg 85%
    22:00 +2°C° 0 mm 3 mps 764 mmHg 87%
    23:00 +2°C° 0 mm 3 mps 764 mmHg 89%
    Show more